EDV1246 KDTW-KLGA

Flight info

Callsign EDV1246
Flight time N/A
Altitude 39000
Route PAVYL3 ESSBE SPYDY Q186 WEVEL ETG MIP4
Aircraft CRJ9/M-SDFGIRWY/S

Departure

Time 2026-05-04 22:01
Airport Detroit Metropolitan Wayne County Airport (KDTW)

Arrival

Time N/A
Airport LaGuardia Airport (KLGA)
Time Latitude Longitude Altitude Speed Heading
2026-05-04 21:25 42.21221 -83.35891 649 ft 0 kts 297°
2026-05-04 21:49 42.21220 -83.35890 647 ft 1 kts 297°
2026-05-04 21:49 42.21211 -83.35865 647 ft 2 kts 297°
2026-05-04 21:49 42.21196 -83.35844 649 ft 4 kts 344°
2026-05-04 21:50 42.21174 -83.35850 647 ft 3 kts 28°
2026-05-04 21:50 42.21150 -83.35866 650 ft 4 kts 28°
2026-05-04 21:50 42.21141 -83.35873 651 ft 0 kts 28°
2026-05-04 21:55 42.21146 -83.35869 648 ft 5 kts 28°
2026-05-04 21:55 42.21201 -83.35829 648 ft 11 kts 28°
2026-05-04 21:56 42.21295 -83.35760 647 ft 19 kts 28°
2026-05-04 21:56 42.21428 -83.35662 649 ft 24 kts 30°
2026-05-04 21:56 42.21534 -83.35558 647 ft 19 kts 62°
2026-05-04 21:56 42.21549 -83.35369 647 ft 22 kts 89°
2026-05-04 21:57 42.21552 -83.35147 647 ft 25 kts 86°
2026-05-04 21:57 42.21625 -83.34999 647 ft 21 kts 44°
2026-05-04 21:57 42.21733 -83.34856 650 ft 24 kts 44°
2026-05-04 21:57 42.21832 -83.34708 648 ft 16 kts 75°
2026-05-04 21:58 42.21841 -83.34544 648 ft 19 kts 72°
2026-05-04 21:58 42.21951 -83.34433 648 ft 22 kts 28°
2026-05-04 21:58 42.22101 -83.34321 647 ft 26 kts 29°
2026-05-04 21:58 42.22270 -83.34197 647 ft 29 kts 28°
2026-05-04 21:59 42.22452 -83.34060 649 ft 29 kts 29°
2026-05-04 21:59 42.22631 -83.33932 648 ft 21 kts 29°
2026-05-04 21:59 42.22766 -83.33829 647 ft 24 kts 28°
2026-05-04 21:59 42.22852 -83.33737 647 ft 9 kts 83°
2026-05-04 22:00 42.22821 -83.33657 647 ft 11 kts 146°
2026-05-04 22:00 42.22749 -83.33674 650 ft 11 kts 208°
2026-05-04 22:00 42.22646 -83.33750 649 ft 39 kts 209°
2026-05-04 22:00 42.22161 -83.34109 648 ft 118 kts 208°
2026-05-04 22:01 42.21273 -83.34761 841 ft 160 kts 206°
2026-05-04 22:01 42.20251 -83.35391 1683 ft 171 kts 206°
2026-05-04 22:01 42.19076 -83.36030 2281 ft 193 kts 206°
2026-05-04 22:01 42.17757 -83.36727 2577 ft 213 kts 204°
2026-05-04 22:02 42.16312 -83.37444 2916 ft 232 kts 198°
2026-05-04 22:02 42.14631 -83.37228 3248 ft 259 kts 163°
2026-05-04 22:02 42.12968 -83.36247 3835 ft 261 kts 164°
2026-05-04 22:02 42.11257 -83.35442 4456 ft 258 kts 172°
2026-05-04 22:03 42.09486 -83.35055 4969 ft 258 kts 181°
2026-05-04 22:03 42.07718 -83.34887 5557 ft 259 kts 183°
2026-05-04 22:03 42.05885 -83.34622 6085 ft 271 kts 168°
2026-05-04 22:03 42.04289 -83.33161 6555 ft 291 kts 137°
2026-05-04 22:04 42.03055 -83.30952 6800 ft 309 kts 127°
2026-05-04 22:04 42.02006 -83.28334 7070 ft 324 kts 118°
2026-05-04 22:04 42.01174 -83.25505 7605 ft 329 kts 112°
2026-05-04 22:04 42.00571 -83.22400 7520 ft 353 kts 100°
2026-05-04 22:05 42.00543 -83.19119 7712 ft 346 kts 84°
2026-05-04 22:05 42.01049 -83.15922 7497 ft 354 kts 72°
2026-05-04 22:05 42.01825 -83.12897 7981 ft 325 kts 69°
2026-05-04 22:05 42.02625 -83.10171 8393 ft 315 kts 67°
2026-05-04 22:06 42.03500 -83.07320 8366 ft 336 kts 67°
2026-05-04 22:06 42.04358 -83.04394 8883 ft 336 kts 71°
2026-05-04 22:06 42.04923 -83.01342 9287 ft 337 kts 81°
2026-05-04 22:06 42.05367 -82.98123 9023 ft 359 kts 75°
2026-05-04 22:07 42.06067 -82.94943 9680 ft 346 kts 72°
2026-05-04 22:07 42.06771 -82.91974 10557 ft 331 kts 71°
2026-05-04 22:07 42.07476 -82.88982 11173 ft 343 kts 71°
2026-05-04 22:07 42.08184 -82.85824 11606 ft 361 kts 73°
2026-05-04 22:08 42.08858 -82.82532 12328 ft 366 kts 74°
2026-05-04 22:08 42.09483 -82.79209 13219 ft 368 kts 75°
2026-05-04 22:08 42.10094 -82.75824 13728 ft 381 kts 75°
2026-05-04 22:08 42.10706 -82.72287 14238 ft 390 kts 76°
2026-05-04 22:09 42.11096 -82.69930 14770 ft 391 kts 77°
2026-05-04 22:09 42.11653 -82.66298 15262 ft 402 kts 78°
2026-05-04 22:09 42.12151 -82.62534 15837 ft 407 kts 80°